Regional Weather Roundup
Issued by NWS

Home | Current Version | Previous Version | Graphics & Text | Print | Product List | Glossary On
Versions: 1 2 3 4 5 6 7 8 9 10 11 12 13 14 15 16 17 18 19 20 21 22 23 24 25 26 27 28 29 30 31 32 33 34 35 36 37 38 39 40 41 42 43 44 45 46 47 48 49 50
000
ASUS43 KOAX 191702
RWRNE

WEATHER ROUNDUP FOR NEBRASKA
NATIONAL WEATHER SERVICE OMAHA NE
1100 AM CST SUN NOV 19 2017

NOTES: SATELLITE DATA IS BEING USED TO AUGMENT CLOUD COVER ABOVE
       12000 FEET.
       "FAIR" INDICATES FEW OR NO CLOUDS BELOW 12,000 FEET WITH NO
       SIGNIFICANT WEATHER AND/OR OBSTRUCTIONS TO VISIBILITY.


NEZ001>004-019>022-054>056-191800-
NEBRASKA PANHANDLE

CITY           SKY/WX    TMP DP  RH WIND       PRES   REMARKS
SCOTTSBLUFF    SUNNY     48  15  26 W17       30.05F
ALLIANCE       SUNNY     47  16  29 W17       30.04F
CHADRON        SUNNY     45  20  36 W8        30.03F
GORDON         FAIR      45  22  41 SW12      30.02S
KIMBALL        SUNNY     49  16  26 W16       30.09F
SIDNEY         SUNNY     49  23  36 SW8       30.09F
$$

NEZ057>060-069>072-079>082-191800-
SOUTHWEST NEBRASKA

CITY           SKY/WX    TMP DP  RH WIND       PRES   REMARKS
NORTH PLATTE   SUNNY     45  23  42 SW10      30.12F
IMPERIAL       SUNNY     43  24  47 SW9       30.12F
LEXINGTON      SUNNY     46  25  43 W9        30.13F
MCCOOK         SUNNY     45  25  45 SW10      30.15F
OGALLALA       SUNNY     41  26  55 W6        30.11S
$$

NEZ005>010-023>029-035>040-094-191800-
NORTH CENTRAL NEBRASKA

CITY           SKY/WX    TMP DP  RH WIND       PRES   REMARKS
VALENTINE      SUNNY     44  24  45 W14       30.03F
AINSWORTH      SUNNY     43  27  52 SW10      30.03F
BROKEN BOW     SUNNY     45  23  42 SW14      30.10F
O`NEILL        SUNNY     43  28  56 SW12      30.06F
ORD            SUNNY     44  26  49 SW9       30.09F
THEDFORD       SUNNY     49  21  33 SW16      30.05F
$$

NEZ041-046>049-061>064-073>077-083>087-191800-
SOUTH CENTRAL NEBRASKA

CITY           SKY/WX    TMP DP  RH WIND       PRES   REMARKS
GRAND ISLAND   SUNNY     42  29  59 W10       30.15F
AURORA         SUNNY     44  28  53 SW8       30.15F
HASTINGS       SUNNY     45  28  51 SW7       30.16F
HEBRON         SUNNY     43  28  55 SW6       30.21S
HOLDREGE       SUNNY     44  26  49 W12       30.15S
KEARNEY        SUNNY     43  23  45 W9        30.15F
$$

NEZ011>018-030>034-042>045-191800-
NORTHEAST NEBRASKA

CITY           SKY/WX    TMP DP  RH WIND       PRES   REMARKS
NORFOLK        SUNNY     44  29  55 S8        30.08F
ALBION         SUNNY     42  28  58 SW7       30.10F
BLAIR          SUNNY     42  30  63 S13       30.15F
COLUMBUS       SUNNY     42  29  59 S8        30.14F
FREMONT        SUNNY     42  31  65 S9        30.15F
TEKAMAH        SUNNY     42  28  57 S9        30.15F
WAYNE          SUNNY     45  26  47 SW10      30.09F
$$

NEZ050>053-065>068-078-088>093-191800-
SOUTHEAST NEBRASKA

CITY           SKY/WX    TMP DP  RH WIND       PRES   REMARKS
LINCOLN        SUNNY     44  27  51 S13       30.18F
OMAHA EPPLEY   MOSUNNY   41  25  53 S14       30.17F
BEATRICE       SUNNY     45  31  59 SW12      30.20F
FALLS CITY     SUNNY     44  26  49 S10       30.24F
NEBRASKA CITY  SUNNY     42  29  58 S13       30.21F
PLATTSMOUTH    SUNNY     41  31  67 S12       30.18F
$$

NEZ044-045-051>053-067-191800-
OMAHA AREA

CITY           SKY/WX    TMP DP  RH WIND       PRES   REMARKS
OMAHA EPPLEY   MOSUNNY   41  25  53 S14       30.17F
BLAIR          SUNNY     42  30  63 S13       30.15F
FREMONT        SUNNY     42  31  65 S9        30.15F
MILLARD        SUNNY     44  29  54 S8        30.17F
OFFUTT AFB     SUNNY     42  28  57 S10       30.17F
PLATTSMOUTH    SUNNY     41  31  67 S12       30.18F
WAHOO          FAIR      44  29  55 S8        30.15F
$$




USA.gov is the U.S. government's official web portal to all federal, state and local government web resources and services.